Weather in Saßnitz

Germany     54°30′40″N   13°37′39″E
temp.,
°C
wind,
m/s
gust,
m/s
humid.,
%
clouds,
%
prec.,
mm/h
press.,
hPa
HPBL,
m
25 february, thu
thu2501:00+8wsw688339 0.0 102633
04:00+8sw67870 0.0 102526
07:00+7sw78910 0.0 102445
10:00+7sw789112 0.0 102345
13:00+9wsw78826 0.0 102334
16:00+8wsw678856 0.0 102240
19:00+7w10158736 0.0 1023148
22:00+5w91291100 0.0 1024150
26 february, fri
fri2601:00+5w81282100 0.0 1025171
04:00+4w91385100 0.0 1025230
07:00+4w10148974 0.0 1025257
10:00+4w1116860 0.0 1026291
13:00+4wnw9148911 0.0 1026304
16:00+5w10158399 0.0 1025244
19:00+5wnw101682100 0.0 1026257
22:00+4wnw11168774 0.0 1027341
27 february, sat
sat2701:00+4wnw10149137 0.0 1029309
04:00+3nw811930 0.0 1029243
07:00+4nw68840 0.0 1031142
10:00+4nw67810 0.0 1033125
13:00+4nw67770 0.0 1034100
16:00+4wnw66750 0.0 103483
19:00+4w68919 0.0 1034127
22:00+4w459060 0.0 103437
28 february, sun
sun2801:00+4wsw569280 0.0 103492
04:00+4w5694100 0.0 1032100
07:00+3wnw4595100 0.0 103394
10:00+4wnw559458 0.0 103394
13:00+4w229250 0.0 103426
16:00+4nw45923 0.0 103374
19:00+3w45921 0.0 1034103
22:00+3w45890 0.0 1035107
1 march, mon
mon101:00+3sw33870 0.0 103639
04:00+3wsw45900 0.0 103597
07:00+3wsw45910 0.0 1035103
10:00+3wsw44890 0.0 103675
13:00+5wsw45830 0.0 103543
16:00+5w56820 0.0 103472
19:00+4w56810 0.0 103457
22:00+5w56810 0.0 103450